Location: Glendo
(42.5037°N, 105.0248°W)
Time: 17:22:07
(UTC+00:00)

ISS - Visible Passes

Search period start: 22 January 2022 00:00
Search period end: 01 February 2022 00:00
Orbit: 413 x 422 km, 51.6° (Epoch: 22 January)

Date Brightness Start Highest point End Pass type
(mag) Time Alt. Az. Time Alt. Az. Time Alt. Az.
22 Jan -2.4 01:47:19 10° W 01:50:17 29° NNW 01:50:36 28° N visible
23 Jan -2.8 00:59:01 10° W 01:02:11 40° NNW 01:04:38 15° NE visible
23 Jan -0.6 02:37:15 10° NW 02:37:34 11° NW 02:37:34 11° NW visible
24 Jan -1.8 01:48:51 10° WNW 01:51:23 20° NNW 01:51:34 20° N visible
25 Jan -2.0 01:00:25 10° WNW 01:03:10 23° NNW 01:05:31 12° NE visible
26 Jan -1.6 01:50:15 10° NW 01:52:23 17° N 01:52:23 17° N visible
27 Jan -1.7 01:01:52 10° NW 01:04:14 18° N 01:06:18 11° NE visible
28 Jan -1.7 01:51:11 10° NW 01:53:09 18° N 01:53:09 18° N visible
29 Jan -1.7 01:03:01 10° NW 01:05:18 17° N 01:07:05 12° NE visible
29 Jan -0.7 02:39:44 10° NW 02:40:01 12° NW 02:40:01 12° NW visible
30 Jan -2.1 01:51:45 10° NW 01:54:00 24° N 01:54:00 24° N visible
31 Jan -2.1 01:03:41 10° NW 01:06:18 21° NNE 01:08:01 15° NE visible
31 Jan -1.0 02:40:10 10° NW 02:40:57 16° NW 02:40:57 16° NW visible
